TimeEST,TemperatureF,Dew PointF,Humidity,Sea Level PressureIn,VisibilityMPH,Wind Direction,Wind SpeedMPH,Gust SpeedMPH,PrecipitationIn,Events,Conditions,WindDirDegrees,DateUTC
12:15 AM,35.6,30.2,81,29.94,10.0,South,6.9,-,N/A,,Clear,170,2014-01-18 05:15:00
12:35 AM,35.6,30.2,81,29.94,10.0,South,6.9,-,N/A,,Clear,170,2014-01-18 05:35:00
12:55 AM,35.6,30.2,81,29.93,10.0,South,6.9,-,N/A,,Clear,170,2014-01-18 05:55:00
1:15 AM,37.4,33.8,87,29.93,10.0,South,6.9,-,N/A,,Mostly Cloudy,170,2014-01-18 06:15:00
1:35 AM,37.4,33.8,87,29.93,10.0,SSE,6.9,-,N/A,,Mostly Cloudy,160,2014-01-18 06:35:00
1:55 AM,37.4,32.0,81,29.92,10.0,South,6.9,-,N/A,,Mostly Cloudy,170,2014-01-18 06:55:00
2:15 AM,37.4,33.8,87,29.92,10.0,SSE,6.9,-,0.01,,Mostly Cloudy,160,2014-01-18 07:15:00
2:35 AM,37.4,33.8,87,29.93,10.0,South,8.1,-,0.01,,Scattered Clouds,180,2014-01-18 07:35:00
2:55 AM,39.2,33.8,81,29.92,10.0,South,9.2,-,0.01,,Mostly Cloudy,180,2014-01-18 07:55:00
3:15 AM,39.2,32.0,75,29.90,10.0,South,6.9,-,N/A,,Mostly Cloudy,170,2014-01-18 08:15:00
3:35 AM,39.2,33.8,81,29.90,10.0,South,9.2,-,N/A,,Mostly Cloudy,170,2014-01-18 08:35:00
3:55 AM,39.2,33.8,81,29.90,10.0,South,6.9,-,N/A,,Overcast,170,2014-01-18 08:55:00
4:15 AM,39.2,33.8,81,29.89,10.0,South,5.8,-,N/A,,Overcast,170,2014-01-18 09:15:00
4:35 AM,39.2,33.8,81,29.89,10.0,South,4.6,-,N/A,,Overcast,180,2014-01-18 09:35:00
4:55 AM,39.2,33.8,81,29.89,10.0,South,5.8,-,N/A,,Overcast,170,2014-01-18 09:55:00
5:15 AM,37.4,35.6,93,29.88,10.0,Calm,Calm,-,N/A,,Overcast,0,2014-01-18 10:15:00
5:35 AM,37.4,33.8,87,29.86,10.0,Calm,Calm,-,0.01,,Mostly Cloudy,0,2014-01-18 10:35:00
5:55 AM,37.4,35.6,93,29.86,10.0,SE,4.6,-,0.01,,Mostly Cloudy,140,2014-01-18 10:55:00
6:15 AM,37.4,35.6,93,29.86,10.0,Calm,Calm,-,N/A,,Overcast,0,2014-01-18 11:15:00
6:35 AM,37.4,35.6,93,29.85,10.0,East,3.5,-,N/A,,Overcast,90,2014-01-18 11:35:00
6:55 AM,37.4,35.6,93,29.85,10.0,Calm,Calm,-,N/A,,Overcast,0,2014-01-18 11:55:00
7:15 AM,37.4,35.6,93,29.83,10.0,ENE,4.6,-,N/A,,Overcast,70,2014-01-18 12:15:00
7:35 AM,37.4,35.6,93,29.82,9.0,East,5.8,-,0.01,,Overcast,80,2014-01-18 12:35:00
7:55 AM,37.4,37.4,100,29.82,5.0,ENE,4.6,-,0.02,,Overcast,60,2014-01-18 12:55:00
8:15 AM,37.4,37.4,100,29.81,5.0,North,5.8,-,0.01,,Overcast,10,2014-01-18 13:15:00
8:35 AM,39.2,37.4,93,29.81,10.0,NE,4.6,-,0.02,,Overcast,40,2014-01-18 13:35:00
8:55 AM,39.2,37.4,93,29.79,5.0,ENE,5.8,-,0.02,,Overcast,60,2014-01-18 13:55:00
9:15 AM,39.2,37.4,93,29.81,4.0,NE,3.5,-,N/A,,Overcast,50,2014-01-18 14:15:00
9:35 AM,39.2,37.4,93,29.80,4.0,ENE,4.6,-,N/A,,Overcast,60,2014-01-18 14:35:00
9:55 AM,41.0,37.4,87,29.79,5.0,East,5.8,-,N/A,,Overcast,80,2014-01-18 14:55:00
10:15 AM,39.2,37.4,93,29.77,5.0,ENE,6.9,-,N/A,,Overcast,70,2014-01-18 15:15:00
10:35 AM,41.0,39.2,93,29.76,8.0,East,6.9,-,N/A,,Overcast,90,2014-01-18 15:35:00
10:55 AM,41.0,39.2,93,29.75,10.0,ESE,5.8,-,N/A,,Overcast,110,2014-01-18 15:55:00
11:15 AM,41.0,37.4,87,29.72,10.0,ESE,8.1,-,N/A,,Overcast,110,2014-01-18 16:15:00
11:35 AM,41.0,39.2,93,29.69,10.0,ESE,9.2,-,N/A,,Overcast,110,2014-01-18 16:35:00
11:55 AM,41.0,37.4,87,29.67,7.0,ESE,9.2,-,N/A,,Overcast,120,2014-01-18 16:55:00
12:15 PM,39.2,39.2,100,29.63,10.0,ESE,11.5,17.3,N/A,,Overcast,120,2014-01-18 17:15:00
12:35 PM,41.0,37.4,87,29.62,10.0,SE,13.8,21.9,N/A,,Overcast,130,2014-01-18 17:35:00
12:55 PM,39.2,37.4,93,29.60,10.0,SE,15.0,19.6,N/A,,Overcast,130,2014-01-18 17:55:00
1:15 PM,39.2,35.6,87,29.60,10.0,SE,13.8,19.6,N/A,,Overcast,130,2014-01-18 18:15:00
1:35 PM,39.2,35.6,87,29.59,10.0,SE,9.2,-,N/A,,Overcast,130,2014-01-18 18:35:00
1:55 PM,39.2,35.6,87,29.59,4.0,SE,11.5,-,N/A,,Overcast,130,2014-01-18 18:55:00
2:15 PM,39.2,37.4,93,29.59,4.0,SE,8.1,-,N/A,,Overcast,140,2014-01-18 19:15:00
2:35 PM,39.2,37.4,93,29.59,4.0,SE,6.9,-,N/A,,Overcast,140,2014-01-18 19:35:00
2:55 PM,41.0,37.4,87,29.60,3.0,South,6.9,-,N/A,,Overcast,170,2014-01-18 19:55:00
3:15 PM,41.0,37.4,87,29.59,4.0,South,10.4,18.4,N/A,,Mostly Cloudy,170,2014-01-18 20:15:00
3:35 PM,41.0,37.4,87,29.59,10.0,South,9.2,-,N/A,,Overcast,170,2014-01-18 20:35:00
3:55 PM,41.0,39.2,93,29.59,4.0,SSW,10.4,-,N/A,,Overcast,200,2014-01-18 20:55:00
4:15 PM,39.2,37.4,93,29.59,7.0,SSW,8.1,-,N/A,,Overcast,210,2014-01-18 21:15:00
4:35 PM,39.2,37.4,93,29.59,10.0,West,5.8,-,N/A,,Scattered Clouds,270,2014-01-18 21:35:00
4:55 PM,37.4,35.6,93,29.59,10.0,West,8.1,-,N/A,,Clear,270,2014-01-18 21:55:00
5:15 PM,37.4,35.6,93,29.59,10.0,West,9.2,-,N/A,,Scattered Clouds,270,2014-01-18 22:15:00
5:35 PM,35.6,33.8,93,29.59,9.0,WSW,8.1,-,N/A,,Overcast,250,2014-01-18 22:35:00
5:55 PM,35.6,33.8,93,29.59,4.0,West,10.4,-,N/A,,Overcast,270,2014-01-18 22:55:00
6:15 PM,35.6,33.8,93,29.60,5.0,West,8.1,-,0.01,,Overcast,260,2014-01-18 23:15:00
6:35 PM,35.6,35.6,100,29.60,10.0,West,9.2,-,0.01,,Overcast,260,2014-01-18 23:35:00
6:55 PM,37.4,35.6,93,29.60,10.0,West,8.1,-,0.01,,Overcast,270,2014-01-18 23:55:00
7:15 PM,37.4,35.6,93,29.59,10.0,West,10.4,-,N/A,,Overcast,270,2014-01-19 00:15:00
7:35 PM,37.4,35.6,93,29.60,10.0,West,9.2,-,N/A,,Overcast,270,2014-01-19 00:35:00
7:55 PM,37.4,35.6,93,29.61,10.0,West,10.4,-,N/A,,Overcast,260,2014-01-19 00:55:00
8:15 PM,37.4,35.6,93,29.61,10.0,West,10.4,-,N/A,,Overcast,260,2014-01-19 01:15:00
8:35 PM,37.4,35.6,93,29.61,10.0,West,13.8,-,N/A,,Overcast,280,2014-01-19 01:35:00
8:55 PM,37.4,35.6,93,29.62,5.0,WNW,16.1,-,N/A,,Overcast,300,2014-01-19 01:55:00
9:15 PM,37.4,35.6,93,29.62,6.0,NW,13.8,-,N/A,,Overcast,310,2014-01-19 02:15:00
9:35 PM,37.4,35.6,93,29.64,10.0,WNW,12.7,19.6,N/A,,Overcast,300,2014-01-19 02:35:00
9:55 PM,37.4,33.8,87,29.65,10.0,NW,12.7,17.3,N/A,,Overcast,310,2014-01-19 02:55:00
10:15 PM,37.4,35.6,93,29.65,10.0,NW,10.4,-,N/A,,Overcast,310,2014-01-19 03:15:00
10:35 PM,37.4,35.6,93,29.67,10.0,WNW,9.2,-,N/A,,Overcast,290,2014-01-19 03:35:00
10:55 PM,37.4,35.6,93,29.66,10.0,WNW,10.4,-,N/A,,Overcast,300,2014-01-19 03:55:00
11:15 PM,37.4,35.6,93,29.66,10.0,NW,10.4,-,N/A,,Overcast,310,2014-01-19 04:15:00
11:35 PM,37.4,35.6,93,29.66,10.0,NW,11.5,-,N/A,,Overcast,310,2014-01-19 04:35:00
11:55 PM,37.4,35.6,93,29.66,10.0,NW,13.8,21.9,N/A,,Overcast,320,2014-01-19 04:55:00